This demonstration page uses our WeatherBlox Daily Observations layout. Learn more.

Left ArrowRight Arrow

38.89511, -77.03637

Hourly Observations for November 6, 2018

Temp ( °F °C ) Dew Point ( °F °C ) Humidity (%) Winds ( mph kmh ) Pressure ( in mb ) Visibility ( mi km ) Precip ( " mm )
12:06 am 00:06 Cloudy with Mist and Fog 54 12.2 52 11.1 93 93 NNE 3 6 30.06 1018 2 3 0.00 0.00
12:52 am 00:52 Cloudy with Mist and Fog 54 12.2 52 11.1 93 93 S 3 6 30.05 1018 2 3 0.00 0.00
12:57 am 00:57 Cloudy with Mist and Fog 54 12.2 52 11.1 93 93 S 3 6 30.03 1017 4 6 0.00 0.00
1:15 am 01:15 Cloudy with Mist and Fog 55 12.8 52 11.1 90 90 S 6 9 30.03 1017 5 8 0.00 0.00
1:25 am 01:25 Cloudy with Mist and Fog 55 12.8 52 11.1 90 90 SSW 8 13 30.03 1017 4 6 0.00 0.00
1:52 am 01:52 Cloudy with Mist and Fog 55 12.8 52 11.1 90 90 S 6 9 30.03 1017 4 6 0.00 0.00
2:36 am 02:36 Mostly Cloudy with Mist and Fog 54 12.2 52 11.1 93 93 S 6 9 30.03 1017 2 3 0.00 0.00
2:52 am 02:52 Mostly Cloudy with Mist and Fog 54 12.2 52 11.1 93 93 S 6 9 30.01 1016 2 2 0.00 0.00
2:59 am 02:59 Mostly Cloudy with Mist and Fog 54 12.2 52 11.1 93 93 S 7 11 30.00 1016 2 2 0.00 0.00
3:52 am 03:52 Mostly Cloudy with Drizzle 54 12.2 52 11.1 93 93 S 9 15 29.99 1016 2 3 0.00 0.03
3:59 am 03:59 Cloudy with Drizzle 55 12.8 52 11.1 90 90 S 9 15 30.00 1016 2 3 0.00 0.03
4:41 am 04:41 Cloudy with Drizzle 55 12.8 52 11.1 90 90 S 12 19 29.97 1015 3 4 0.00 0.03
4:52 am 04:52 Cloudy with Drizzle 55 12.8 52 11.1 90 90 S 12 19 29.97 1015 3 4 0.00 0.03
4:55 am 04:55 Cloudy with Drizzle 55 12.8 52 11.1 90 90 SSE 10 17 29.97 1015 3 5 0.00 0.03
5:48 am 05:48 Cloudy with Drizzle 55 13 54 12 94 94 S 10 17 29.97 1015 2 2 0.00 0.03
5:52 am 05:52 Cloudy with Drizzle 55 12.8 53 11.7 93 93 SSW 10 17 29.96 1015 2 2 0.00 0.03
6:03 am 06:03 Cloudy with Drizzle 55 12.8 53 11.7 93 93 S 8 13 29.97 1015 3 4 0.00 0.03
6:20 am 06:20 Cloudy with Drizzle 55 12.8 53 11.7 93 93 S 8 13 29.94 1014 2 3 0.00 0.03
6:52 am 06:52 Cloudy with Light Rain 55 12.8 53 11.7 93 93 SSE 7 11 29.92 1013 2 2 0.01 0.25
7:06 am 07:06 Cloudy with Drizzle 56 13.3 53 11.7 90 90 S 6 9 29.91 1013 3 4 0.00 0.03
7:26 am 07:26 Cloudy with Mist and Fog 56 13.3 54 12.2 93 93 S 7 11 29.91 1013 4 6 0.00 0.03
7:52 am 07:52 Cloudy with Light Rain 56 13.3 54 12.2 93 93 WSW 9 15 29.93 1013 4 6 0.03 0.76
8:00 am 08:00 Cloudy with Heavy Rain 56 13.3 54 12.2 93 93 W 8 13 29.91 1013 2 2 0.03 0.76
8:15 am 08:15 Cloudy with Heavy Rain 56 13.3 54 12.2 93 93 SSE 7 11 29.91 1013 1 2 0.18 4.57
8:18 am 08:18 Cloudy with Heavy Rain 56 13.3 54 12.2 93 93 SE 8 13 29.88 1012 2 2 0.20 5.08
8:32 am 08:32 Cloudy with Heavy Rain 56 13.3 54 12.2 93 93 SSW 5 7 29.91 1013 3 4 0.28 7.11
8:43 am 08:43 Cloudy with Rain 56 13.3 54 12.2 93 93 SSE 8 13 29.88 1012 3 5 0.32 8.13
8:52 am 08:52 Cloudy with Heavy Rain 57 13.9 55 12.8 93 93 Calm 29.88 1012 3 4 0.36 9.14
8:54 am 08:54 Cloudy with Heavy Rain 57 13.9 55 12.8 93 93 SSW 3 6 29.88 1012 3 5 0.01 0.25
9:28 am 09:28 Cloudy with Heavy Rain 57 13.9 54 12.2 90 90 SSW 6 9 29.88 1012 3 4 0.10 2.54
9:35 am 09:35 Cloudy with Heavy Rain 57 13.9 54 12.2 90 90 S 5 7 29.88 1012 3 5 0.13 3.30
9:52 am 09:52 Cloudy with Rain 57 13.9 54 12.2 90 90 W 5 7 29.88 1012 3 5 0.18 4.57
10:01 am 10:01 Cloudy with Light Rain 57 13.9 55 12.8 93 93 W 6 9 29.88 1012 4 6 0.00 0.03
10:31 am 10:31 Cloudy with Light Rain 58 14.4 55 12.8 90 90 WNW 6 9 29.88 1012 6 10 0.02 0.51
10:40 am 10:40 Cloudy with Heavy Rain 58 14.4 55 12.8 90 90 WNW 7 11 29.88 1012 2 3 0.03 0.76
10:49 am 10:49 Cloudy with Light Rain 57 14 55 13 94 94 NW 13 20 29.88 1012 3 5 0.07 1.78
10:52 am 10:52 Cloudy with Rain 58 14.4 55 12.8 90 90 NW 14 22 29.89 1012 2 3 0.08 2.03
10:59 am 10:59 Cloudy with Rain 58 14.4 55 12.8 90 90 NW 10 17 29.91 1013 2 2 0.02 0.51
11:14 am 11:14 Cloudy with Rain 58 14.4 55 12.8 90 90 NNW 8 13 29.91 1013 2 3 0.05 1.27
11:22 am 11:22 Cloudy with Rain 58 14.4 54 12.2 87 87 NNW 5 7 29.91 1013 3 4 0.06 1.52
11:47 am 11:47 Cloudy with Light Rain 57 14 54 12 88 88 ESE 5 7 29.88 1012 3 5 0.11 2.79
11:52 am 11:52 Cloudy with Light Rain 57 13.9 55 12.8 93 93 E 6 9 29.88 1012 5 8 0.12 3.05
12:00 pm 12:00 Cloudy with Light Rain 57 13.9 55 12.8 93 93 ESE 6 9 29.88 1012 9 14 0.00 0.03
12:52 pm 12:52 Cloudy 59 15 57 13.9 93 93 S 5 7 29.81 1010 10 16 0.00 0.03
1:39 pm 13:39 Cloudy 60 15.6 57 13.9 90 90 SSW 6 9 29.80 1009 10 16 0.00 0.00
1:52 pm 13:52 Cloudy 60 15.6 57 13.9 90 90 SW 9 15 29.81 1010 10 16 0.00 0.00
2:52 pm 14:52 Cloudy with Light Rain 61 16.1 57 13.9 87 87 SSW 3 6 29.82 1010 7 11 0.00 0.03
3:52 pm 15:52 Cloudy with Light Rain 60 15.6 57 13.9 90 90 S 6 9 29.83 1010 10 16 0.01 0.25
4:52 pm 16:52 Cloudy with Light Rain 60 15.6 57 13.9 90 90 S 8 13 29.83 1010 10 16 0.00 0.03
5:52 pm 17:52 Mostly Cloudy 60 15.6 57 13.9 90 90 SSW 3 6 29.84 1010 10 16 0.00 0.03
6:52 pm 18:52 Mostly Clear 59 15 57 13.9 93 93 S 6 9 29.86 1011 10 16 0.00 0.00
7:52 pm 19:52 Clear 58 14.4 55 12.8 90 90 S 6 9 29.88 1012 10 16 0.00 0.00
8:52 pm 20:52 Clear 57 13.9 54 12.2 90 90 S 7 11 29.90 1012 10 16 0.00 0.00
9:52 pm 21:52 Clear 57 13.9 54 12.2 90 90 SSW 7 11 29.92 1013 10 16 0.00 0.00
10:52 pm 22:52 Clear 56 13.3 53 11.7 90 90 S 8 13 29.93 1014 10 16 0.00 0.00
11:52 pm 23:52 Clear 55 12.8 52 11.1 90 90 S 5 7 29.96 1014 10 16 0.00 0.00

Powered by AerisWeather